QPF
0.00 0.00 0.00 0.01 0.00 0.00 0.01 0.01 0.01 0.01 0.01 0.01 0.01 0.01 0.01 0.01 0.00 0.00 0.01 0.01 0.01 0.02 0.04 0.05 0.04 0.05 0.06 0.06 0.06 0.04 0.04 0.04 0.04 0.07 0.07 0.06 0.06 0.06 0.09 0.12 0.13 0.07 0.07
0.00 0.00 0.00 0.00 0.00 0.01 0.01 0.01 0.01 0.01 0.01 0.01 0.01 0.01 0.01 0.01 0.01 0.01 0.01 0.02 0.02 0.02 0.04 0.04 0.04 0.04 0.06 0.07 0.06 0.03 0.04 0.04 0.05 0.08 0.08 0.08 0.07 0.08 0.11 0.14 0.14 0.06 0.07
0.00 0.00 0.00 0.00 0.00 0.01 0.01 0.01 0.01 0.01 0.01 0.01 0.01 0.01 0.01 0.02 0.01 0.01 0.02 0.02 0.02 0.02 0.02 0.04 0.04 0.04 0.05 0.07 0.05 0.03 0.04 0.06 0.08 0.11 0.13 0.10 0.06 0.07 0.12 0.15 0.09 0.06 0.09
0.00 0.00 0.00 0.00 0.00 0.01 0.01 0.01 0.01 0.01 0.01 0.01 0.01 0.01 0.02 0.02 0.02 0.02 0.02 0.02 0.01 0.01 0.02 0.05 0.03 0.04 0.04 0.05 0.05 0.03 0.03 0.05 0.10 0.19 0.21 0.09 0.05 0.05 0.09 0.09 0.06 0.06 0.07
0.00 0.00 0.00 0.00 0.00 0.00 0.01 0.01 0.01 0.01 0.01 0.01 0.01 0.01 0.01 0.01 0.02 0.02 0.01 0.02 0.01 0.02 0.03 0.03 0.03 0.03 0.03 0.03 0.06 0.05 0.04 0.05 0.10 0.22 0.16 0.14 0.08 0.06 0.08 0.08 0.09 0.07 0.06
0.00 0.00 0.00 0.00 0.00 0.00 0.00 0.01 0.02 0.01 0.01 0.01 0.01 0.01 0.01 0.01 0.02 0.02 0.01 0.02 0.02 0.02 0.03 0.04 0.05 0.03 0.02 0.02 0.05 0.08 0.07 0.07 0.14 0.10 0.07 0.09 0.05 0.04 0.07 0.08 0.06 0.05 0.05
0.00 0.00 0.00 0.00 0.00 0.00 0.01 0.01 0.01 0.01 0.01 0.01 0.01 0.01 0.02 0.02 0.02 0.01 0.02 0.02 0.02 0.02 0.03 0.03 0.04 0.04 0.03 0.02 0.03 0.04 0.05 0.09 0.11 0.06 0.06 0.09 0.05 0.03 0.05 0.06 0.04 0.04 0.04
0.01 0.01 0.01 0.01 0.02 0.01 0.01 0.01 0.01 0.01 0.01 0.01 0.01 0.02 0.02 0.02 0.02 0.02 0.02 0.02 0.01 0.02 0.03 0.02 0.03 0.02 0.02 0.03 0.03 0.03 0.03 0.05 0.04 0.05 0.05 0.05 0.02 0.04 0.05 0.05 0.03 0.03 0.02
0.02 0.03 0.02 0.01 0.02 0.01 0.01 0.01 0.01 0.01 0.01 0.02 0.01 0.02 0.02 0.01 0.02 0.02 0.01 0.01 0.01 0.02 0.03 0.02 0.01 0.01 0.02 0.02 0.02 0.02 0.02 0.04 0.06 0.06 0.04 0.02 0.01 0.04 0.06 0.04 0.04 0.03 0.02
0.03 0.05 0.04 0.01 0.03 0.03 0.02 0.02 0.02 0.01 0.02 0.02 0.02 0.01 0.01 0.01 0.02 0.01 0.01 0.01 0.02 0.03 0.03 0.02 0.01 0.00 0.01 0.02 0.01 0.01 0.02 0.03 0.05 0.04 0.04 0.01 0.01 0.03 0.04 0.04 0.04 0.04 0.06
0.07 0.09 0.09 0.06 0.05 0.06 0.04 0.02 0.02 0.02 0.01 0.02 0.02 0.01 0.03 0.09 0.06 0.04 0.02 0.01 0.02 0.04 0.03 0.01 0.01 0.01 0.01 0.01 0.02 0.02 0.03 0.06 0.06 0.04 0.03 0.01 0.02 0.03 0.04 0.03 0.04 0.05 0.06
0.06 0.09 0.11 0.10 0.07 0.06 0.06 0.04 0.05 0.04 0.02 0.05 0.06 0.04 0.12 0.16 0.14 0.07 0.03 0.01 0.01 0.03 0.03 0.02 0.02 0.02 0.04 0.03 0.02 0.02 0.04 0.06 0.05 0.01 0.01 0.01 0.02 0.02 0.03 0.04 0.04 0.05 0.04
0.05 0.05 0.08 0.13 0.10 0.08 0.10 0.07 0.05 0.07 0.07 0.09 0.09 0.08 0.12 0.11 0.07 0.05 0.04 0.03 0.04 0.05 0.08 0.03 0.03 0.07 0.10 0.10 0.06 0.06 0.05 0.08 0.07 0.02 0.01 0.01 0.01 0.02 0.02 0.03 0.03 0.04 0.04
0.08 0.08 0.07 0.11 0.13 0.13 0.11 0.08 0.06 0.05 0.04 0.07 0.08 0.07 0.07 0.10 0.09 0.08 0.08 0.07 0.09 0.12 0.15 0.10 0.11 0.11 0.11 0.07 0.06 0.09 0.05 0.03 0.04 0.05 0.02 0.01 0.01 0.01 0.02 0.03 0.04 0.05 0.05
0.11 0.12 0.08 0.10 0.15 0.16 0.15 0.11 0.08 0.07 0.04 0.04 0.06 0.06 0.05 0.06 0.07 0.08 0.08 0.08 0.09 0.09 0.10 0.12 0.11 0.10 0.09 0.07 0.06 0.05 0.06 0.05 0.05 0.05 0.02 0.01 0.01 0.01 0.01 0.03 0.04 0.04 0.03
0.09 0.11 0.10 0.10 0.14 0.15 0.13 0.11 0.11 0.08 0.05 0.04 0.03 0.03 0.03 0.05 0.07 0.08 0.07 0.08 0.09 0.09 0.09 0.08 0.07 0.08 0.08 0.07 0.06 0.05 0.04 0.04 0.04 0.05 0.04 0.02 0.01 0.01 0.01 0.02 0.04 0.03 0.01
0.08 0.09 0.10 0.09 0.12 0.15 0.13 0.10 0.08 0.06 0.03 0.04 0.03 0.03 0.03 0.05 0.07 0.07 0.08 0.07 0.06 0.06 0.05 0.05 0.05 0.07 0.07 0.06 0.06 0.05 0.05 0.04 0.04 0.05 0.08 0.07 0.02 0.01 0.01 0.01 0.03 0.02 0.01
0.07 0.08 0.09 0.08 0.08 0.13 0.15 0.13 0.09 0.07 0.05 0.04 0.04 0.04 0.03 0.05 0.05 0.05 0.07 0.06 0.05 0.03 0.02 0.05 0.06 0.07 0.08 0.08 0.08 0.06 0.04 0.06 0.05 0.05 0.07 0.07 0.07 0.03 0.02 0.01 0.02 0.02 0.02
0.06 0.06 0.09 0.11 0.11 0.14 0.17 0.15 0.11 0.09 0.07 0.05 0.03 0.05 0.05 0.04 0.03 0.04 0.07 0.09 0.05 0.03 0.02 0.03 0.07 0.07 0.08 0.09 0.06 0.06 0.04 0.07 0.06 0.04 0.05 0.06 0.06 0.06 0.06 0.03 0.02 0.02 0.02
0.05 0.04 0.08 0.10 0.11 0.14 0.18 0.17 0.16 0.12 0.07 0.05 0.04 0.06 0.07 0.06 0.04 0.04 0.04 0.07 0.04 0.04 0.05 0.06 0.09 0.09 0.09 0.08 0.07 0.08 0.05 0.06 0.05 0.05 0.04 0.03 0.03 0.02 0.05 0.06 0.04 0.03 0.02
0.04 0.04 0.06 0.09 0.10 0.12 0.14 0.14 0.14 0.12 0.09 0.05 0.03 0.04 0.04 0.04 0.05 0.05 0.06 0.09 0.04 0.04 0.04 0.03 0.07 0.08 0.08 0.07 0.10 0.12 0.09 0.05 0.05 0.05 0.04 0.03 0.02 0.04 0.07 0.07 0.06 0.08 0.05
0.04 0.05 0.07 0.10 0.11 0.09 0.12 0.14 0.17 0.14 0.08 0.06 0.05 0.06 0.05 0.04 0.04 0.03 0.05 0.05 0.04 0.04 0.03 0.03 0.06 0.08 0.09 0.07 0.08 0.14 0.17 0.17 0.12 0.04 0.05 0.06 0.03 0.04 0.04 0.04 0.05 0.07 0.06
0.03 0.05 0.07 0.10 0.13 0.12 0.15 0.16 0.16 0.16 0.11 0.09 0.07 0.08 0.07 0.06 0.05 0.05 0.04 0.05 0.07 0.03 0.04 0.05 0.05 0.06 0.09 0.09 0.05 0.09 0.16 0.18 0.14 0.08 0.05 0.05 0.04 0.05 0.04 0.03 0.03 0.03 0.04
0.05 0.07 0.09 0.15 0.16 0.16 0.20 0.16 0.12 0.11 0.10 0.09 0.09 0.08 0.09 0.08 0.06 0.06 0.06 0.08 0.08 0.06 0.08 0.04 0.05 0.06 0.07 0.08 0.06 0.03 0.04 0.08 0.11 0.15 0.11 0.06 0.06 0.05 0.04 0.04 0.03 0.03 0.04
0.04 0.12 0.19 0.17 0.18 0.20 0.16 0.12 0.10 0.10 0.12 0.10 0.09 0.11 0.10 0.09 0.07 0.06 0.07 0.09 0.08 0.06 0.08 0.06 0.09 0.07 0.07 0.06 0.04 0.03 0.04 0.04 0.04 0.07 0.13 0.12 0.09 0.05 0.03 0.03 0.04 0.05 0.05
0.03 0.08 0.11 0.09 0.09 0.11 0.12 0.12 0.10 0.11 0.14 0.12 0.10 0.09 0.08 0.08 0.08 0.07 0.07 0.08 0.07 0.07 0.08 0.07 0.07 0.07 0.08 0.09 0.06 0.04 0.03 0.03 0.02 0.03 0.06 0.08 0.09 0.07 0.04 0.03 0.04 0.04 0.05
MSLP
1009.23 1009.29 1009.53 1009.95 1010.48 1011.07 1011.62 1012.09 1012.44 1012.68 1012.85 1012.99 1013.15 1013.34 1013.59 1013.86 1014.14 1014.39 1014.59 1014.74 1014.84 1014.92 1015.01 1015.11 1015.25 1015.43 1015.62 1015.83 1016.04 1016.23 1016.41 1016.58 1016.76 1016.94 1017.15 1017.36 1017.57 1017.78 1017.97 1018.13 1018.28 1018.41 1018.56
1009.07 1009.30 1009.69 1010.22 1010.82 1011.41 1011.92 1012.32 1012.59 1012.77 1012.91 1013.05 1013.25 1013.51 1013.83 1014.17 1014.49 1014.76 1014.95 1015.06 1015.11 1015.14 1015.19 1015.28 1015.42 1015.61 1015.83 1016.06 1016.28 1016.48 1016.66 1016.83 1017.01 1017.19 1017.40 1017.62 1017.84 1018.06 1018.27 1018.45 1018.61 1018.77 1018.92
1008.90 1009.29 1009.84 1010.48 1011.14 1011.74 1012.23 1012.58 1012.80 1012.93 1013.04 1013.19 1013.41 1013.72 1014.07 1014.44 1014.77 1015.02 1015.18 1015.25 1015.26 1015.27 1015.31 1015.40 1015.56 1015.77 1016.01 1016.26 1016.49 1016.69 1016.87 1017.03 1017.21 1017.41 1017.63 1017.87 1018.12 1018.36 1018.59 1018.78 1018.96 1019.13 1019.30
1008.72 1009.27 1009.94 1010.69 1011.42 1012.05 1012.54 1012.86 1013.05 1013.16 1013.26 1013.41 1013.64 1013.95 1014.31 1014.67 1014.98 1015.19 1015.31 1015.36 1015.36 1015.37 1015.42 1015.55 1015.74 1015.98 1016.24 1016.48 1016.70 1016.89 1017.05 1017.21 1017.39 1017.60 1017.86 1018.13 1018.42 1018.69 1018.93 1019.15 1019.34 1019.51 1019.69
1008.56 1009.23 1010.02 1010.86 1011.66 1012.33 1012.83 1013.16 1013.35 1013.45 1013.54 1013.69 1013.91 1014.21 1014.54 1014.86 1015.13 1015.31 1015.41 1015.44 1015.46 1015.50 1015.60 1015.78 1016.01 1016.28 1016.54 1016.77 1016.95 1017.10 1017.23 1017.37 1017.56 1017.80 1018.09 1018.41 1018.74 1019.04 1019.31 1019.54 1019.73 1019.90 1020.08
1008.46 1009.22 1010.09 1011.01 1011.86 1012.57 1013.10 1013.45 1013.64 1013.75 1013.85 1013.99 1014.20 1014.47 1014.76 1015.04 1015.26 1015.41 1015.50 1015.55 1015.61 1015.71 1015.88 1016.12 1016.39 1016.67 1016.92 1017.11 1017.24 1017.33 1017.41 1017.53 1017.72 1017.99 1018.32 1018.69 1019.07 1019.41 1019.70 1019.93 1020.11 1020.27 1020.44
1008.42 1009.24 1010.17 1011.13 1012.02 1012.77 1013.32 1013.69 1013.90 1014.03 1014.14 1014.28 1014.48 1014.72 1014.97 1015.21 1015.39 1015.53 1015.62 1015.71 1015.83 1016.01 1016.25 1016.55 1016.86 1017.14 1017.35 1017.48 1017.54 1017.56 1017.59 1017.68 1017.87 1018.16 1018.55 1018.97 1019.40 1019.77 1020.08 1020.30 1020.47 1020.61 1020.75
1008.47 1009.31 1010.26 1011.23 1012.14 1012.90 1013.47 1013.85 1014.09 1014.25 1014.38 1014.53 1014.72 1014.94 1015.17 1015.37 1015.54 1015.67 1015.79 1015.92 1016.11 1016.36 1016.67 1017.01 1017.34 1017.60 1017.76 1017.82 1017.80 1017.75 1017.73 1017.80 1017.99 1018.32 1018.75 1019.23 1019.70 1020.11 1020.42 1020.64 1020.78 1020.89 1021.01
1008.59 1009.41 1010.35 1011.31 1012.20 1012.94 1013.51 1013.91 1014.18 1014.36 1014.52 1014.70 1014.90 1015.12 1015.35 1015.55 1015.71 1015.85 1016.00 1016.17 1016.41 1016.71 1017.06 1017.42 1017.74 1017.97 1018.08 1018.07 1017.99 1017.88 1017.82 1017.88 1018.09 1018.45 1018.93 1019.46 1019.97 1020.40 1020.72 1020.92 1021.04 1021.11 1021.20
1008.74 1009.53 1010.42 1011.33 1012.18 1012.89 1013.45 1013.85 1014.13 1014.35 1014.55 1014.77 1015.01 1015.26 1015.50 1015.72 1015.90 1016.06 1016.22 1016.42 1016.68 1017.00 1017.35 1017.70 1018.00 1018.19 1018.25 1018.19 1018.06 1017.93 1017.86 1017.93 1018.16 1018.56 1019.08 1019.65 1020.20 1020.65 1020.97 1021.16 1021.25 1021.30 1021.36
1008.90 1009.63 1010.46 1011.31 1012.09 1012.74 1013.26 1013.65 1013.96 1014.21 1014.46 1014.74 1015.04 1015.34 1015.63 1015.88 1016.09 1016.26 1016.44 1016.64 1016.89 1017.19 1017.52 1017.83 1018.08 1018.23 1018.26 1018.18 1018.04 1017.91 1017.86 1017.96 1018.23 1018.67 1019.22 1019.82 1020.39 1020.85 1021.18 1021.37 1021.45 1021.47 1021.51
1009.02 1009.70 1010.45 1011.21 1011.91 1012.50 1012.97 1013.35 1013.66 1013.95 1014.26 1014.61 1014.98 1015.36 1015.71 1016.01 1016.25 1016.45 1016.62 1016.81 1017.02 1017.28 1017.55 1017.80 1018.01 1018.12 1018.14 1018.06 1017.95 1017.86 1017.86 1018.00 1018.31 1018.78 1019.35 1019.97 1020.54 1021.01 1021.35 1021.54 1021.62 1021.65 1021.67
1009.09 1009.72 1010.40 1011.07 1011.68 1012.19 1012.61 1012.97 1013.28 1013.61 1013.98 1014.39 1014.84 1015.30 1015.72 1016.08 1016.37 1016.59 1016.76 1016.92 1017.08 1017.27 1017.47 1017.67 1017.82 1017.92 1017.94 1017.91 1017.85 1017.82 1017.89 1018.08 1018.42 1018.90 1019.48 1020.09 1020.65 1021.13 1021.47 1021.69 1021.79 1021.83 1021.87
1009.11 1009.69 1010.31 1010.90 1011.42 1011.87 1012.24 1012.57 1012.88 1013.24 1013.65 1014.12 1014.64 1015.17 1015.66 1016.09 1016.42 1016.67 1016.84 1016.97 1017.09 1017.21 1017.35 1017.48 1017.61 1017.70 1017.75 1017.77 1017.79 1017.84 1017.97 1018.20 1018.56 1019.03 1019.58 1020.16 1020.71 1021.17 1021.53 1021.78 1021.92 1022.01 1022.08
1009.10 1009.65 1010.21 1010.74 1011.20 1011.59 1011.92 1012.22 1012.53 1012.89 1013.33 1013.84 1014.40 1014.98 1015.53 1016.01 1016.39 1016.67 1016.85 1016.98 1017.06 1017.14 1017.23 1017.32 1017.43 1017.53 1017.62 1017.71 1017.80 1017.92 1018.11 1018.37 1018.72 1019.16 1019.66 1020.17 1020.68 1021.12 1021.50 1021.78 1021.99 1022.14 1022.26
1009.09 1009.63 1010.15 1010.63 1011.05 1011.40 1011.71 1011.99 1012.29 1012.65 1013.08 1013.58 1014.15 1014.75 1015.32 1015.84 1016.26 1016.58 1016.80 1016.94 1017.02 1017.09 1017.15 1017.23 1017.34 1017.46 1017.59 1017.74 1017.90 1018.09 1018.30 1018.57 1018.89 1019.26 1019.67 1020.11 1020.55 1020.97 1021.34 1021.67 1021.95 1022.18 1022.37
1009.12 1009.65 1010.16 1010.62 1011.02 1011.36 1011.66 1011.93 1012.22 1012.54 1012.94 1013.41 1013.94 1014.50 1015.07 1015.60 1016.06 1016.42 1016.68 1016.86 1016.98 1017.06 1017.13 1017.22 1017.34 1017.49 1017.67 1017.87 1018.08 1018.30 1018.53 1018.78 1019.04 1019.33 1019.64 1019.97 1020.33 1020.70 1021.07 1021.43 1021.77 1022.09 1022.36
1009.21 1009.74 1010.24 1010.71 1011.12 1011.47 1011.78 1012.05 1012.32 1012.61 1012.94 1013.33 1013.78 1014.28 1014.81 1015.32 1015.79 1016.20 1016.52 1016.76 1016.93 1017.06 1017.17 1017.29 1017.43 1017.61 1017.82 1018.05 1018.30 1018.54 1018.77 1018.98 1019.18 1019.37 1019.57 1019.79 1020.06 1020.36 1020.71 1021.08 1021.47 1021.84 1022.19
1009.36 1009.89 1010.40 1010.87 1011.31 1011.70 1012.04 1012.33 1012.58 1012.82 1013.08 1013.37 1013.71 1014.11 1014.56 1015.03 1015.50 1015.94 1016.32 1016.63 1016.88 1017.08 1017.24 1017.40 1017.57 1017.77 1018.00 1018.26 1018.53 1018.78 1019.00 1019.17 1019.31 1019.41 1019.51 1019.62 1019.78 1020.00 1020.30 1020.65 1021.06 1021.47 1021.86
1009.55 1010.07 1010.58 1011.08 1011.55 1011.99 1012.38 1012.69 1012.95 1013.15 1013.33 1013.51 1013.72 1014.01 1014.35 1014.77 1015.22 1015.68 1016.12 1016.51 1016.83 1017.10 1017.32 1017.52 1017.72 1017.94 1018.18 1018.46 1018.73 1018.99 1019.21 1019.36 1019.45 1019.48 1019.49 1019.51 1019.57 1019.70 1019.91 1020.22 1020.60 1021.01 1021.42
1009.73 1010.23 1010.74 1011.26 1011.78 1012.27 1012.71 1013.07 1013.34 1013.52 1013.63 1013.71 1013.81 1013.97 1014.22 1014.56 1014.98 1015.45 1015.93 1016.39 1016.79 1017.12 1017.39 1017.63 1017.84 1018.07 1018.33 1018.61 1018.90 1019.17 1019.39 1019.55 1019.62 1019.62 1019.57 1019.50 1019.47 1019.50 1019.62 1019.84 1020.15 1020.52 1020.91
1009.85 1010.33 1010.82 1011.35 1011.91 1012.46 1012.96 1013.37 1013.67 1013.84 1013.92 1013.92 1013.93 1013.99 1014.15 1014.43 1014.82 1015.29 1015.80 1016.30 1016.75 1017.13 1017.44 1017.69 1017.92 1018.16 1018.41 1018.70 1019.01 1019.30 1019.55 1019.73 1019.82 1019.81 1019.73 1019.61 1019.50 1019.43 1019.45 1019.57 1019.78 1020.07 1020.40
1009.89 1010.32 1010.79 1011.32 1011.90 1012.49 1013.05 1013.52 1013.86 1014.06 1014.13 1014.10 1014.06 1014.06 1014.15 1014.38 1014.73 1015.19 1015.71 1016.23 1016.71 1017.12 1017.45 1017.71 1017.94 1018.16 1018.42 1018.71 1019.04 1019.36 1019.66 1019.89 1020.02 1020.04 1019.96 1019.81 1019.64 1019.49 1019.41 1019.41 1019.51 1019.70 1019.95
1009.80 1010.20 1010.64 1011.15 1011.73 1012.35 1012.96 1013.48 1013.88 1014.12 1014.22 1014.20 1014.15 1014.12 1014.19 1014.38 1014.71 1015.15 1015.67 1016.19 1016.67 1017.08 1017.40 1017.65 1017.87 1018.09 1018.34 1018.64 1018.98 1019.35 1019.69 1019.97 1020.16 1020.22 1020.17 1020.02 1019.82 1019.62 1019.45 1019.35 1019.35 1019.43 1019.60
1009.61 1009.97 1010.37 1010.86 1011.43 1012.06 1012.69 1013.26 1013.71 1014.02 1014.16 1014.19 1014.17 1014.16 1014.22 1014.41 1014.72 1015.14 1015.64 1016.14 1016.60 1016.99 1017.30 1017.53 1017.72 1017.92 1018.17 1018.47 1018.83 1019.22 1019.61 1019.95 1020.19 1020.30 1020.29 1020.16 1019.97 1019.73 1019.51 1019.35 1019.26 1019.27 1019.36
1009.35 1009.68 1010.05 1010.51 1011.05 1011.67 1012.31 1012.91 1013.40 1013.76 1013.98 1014.07 1014.10 1014.14 1014.23 1014.42 1014.72 1015.13 1015.59 1016.06 1016.49 1016.84 1017.12 1017.33 1017.50 1017.69 1017.92 1018.22 1018.58 1019.00 1019.41 1019.78 1020.07 1020.23 1020.26 1020.17 1020.00 1019.77 1019.54 1019.35 1019.23 1019.20 1019.25
Thickness
5806 5802 5796 5794 5792 5790 5789 5787 5785 5783 5781 5779 5778 5776 5774 5773 5772 5771 5769 5768 5767 5766 5765 5763 5762 5761 5759 5758 5757 5756 5755 5754 5753 5752 5751 5749 5748 5747 5746 5745 5744 5743 5741
5811 5802 5796 5793 5791 5789 5787 5785 5783 5781 5779 5777 5776 5774 5773 5772 5770 5769 5768 5766 5766 5765 5763 5762 5761 5759 5758 5757 5756 5755 5754 5753 5752 5751 5749 5748 5746 5745 5745 5744 5743 5741 5740
5810 5802 5796 5792 5790 5788 5786 5783 5782 5780 5778 5776 5774 5772 5771 5770 5769 5767 5766 5765 5764 5763 5762 5761 5760 5758 5757 5756 5754 5753 5753 5752 5751 5750 5749 5746 5744 5743 5743 5742 5741 5739 5738
5810 5802 5796 5791 5788 5786 5784 5782 5780 5778 5776 5774 5772 5771 5770 5768 5767 5766 5765 5763 5763 5762 5761 5760 5758 5757 5755 5754 5753 5753 5752 5751 5750 5748 5748 5746 5744 5741 5741 5740 5739 5738 5737
5809 5802 5793 5789 5787 5784 5782 5780 5778 5776 5774 5772 5770 5769 5768 5767 5765 5764 5763 5762 5761 5760 5759 5758 5757 5755 5754 5753 5752 5752 5751 5750 5749 5748 5747 5745 5742 5740 5739 5738 5737 5736 5735
5807 5799 5791 5788 5785 5782 5779 5778 5776 5774 5772 5770 5769 5767 5766 5765 5764 5763 5761 5760 5759 5758 5758 5757 5755 5754 5752 5751 5751 5751 5750 5749 5748 5748 5746 5743 5740 5739 5738 5737 5736 5735 5734
5808 5798 5789 5785 5782 5780 5778 5776 5774 5772 5770 5768 5767 5766 5764 5764 5762 5761 5760 5758 5757 5756 5756 5755 5753 5752 5751 5750 5750 5750 5749 5749 5749 5748 5744 5741 5739 5737 5736 5735 5734 5733 5732
5808 5797 5787 5782 5779 5777 5776 5774 5772 5770 5768 5767 5765 5764 5763 5762 5761 5759 5758 5757 5755 5754 5754 5753 5752 5750 5749 5749 5749 5749 5749 5749 5750 5748 5743 5740 5738 5736 5735 5734 5733 5732 5731
5807 5796 5786 5781 5777 5775 5773 5771 5770 5768 5766 5765 5764 5763 5761 5760 5759 5757 5756 5755 5753 5753 5752 5751 5751 5749 5748 5748 5748 5748 5748 5748 5749 5746 5742 5738 5736 5735 5733 5732 5731 5730 5730
5803 5795 5787 5782 5777 5773 5770 5768 5767 5766 5765 5763 5762 5761 5760 5759 5758 5756 5755 5753 5752 5751 5750 5750 5749 5748 5747 5747 5747 5747 5747 5747 5748 5746 5741 5737 5735 5734 5732 5731 5730 5729 5728
5798 5793 5788 5783 5777 5774 5770 5767 5764 5763 5762 5762 5761 5760 5759 5758 5757 5755 5754 5752 5751 5750 5749 5749 5748 5747 5746 5745 5745 5746 5746 5746 5746 5744 5739 5735 5734 5733 5731 5730 5729 5728 5727
5793 5791 5789 5784 5778 5775 5772 5766 5764 5763 5761 5761 5761 5760 5759 5759 5758 5757 5753 5751 5750 5749 5748 5748 5747 5746 5745 5745 5744 5744 5745 5746 5745 5742 5738 5735 5733 5732 5730 5729 5728 5726 5726
5793 5790 5786 5782 5778 5775 5771 5766 5765 5765 5762 5762 5762 5761 5760 5759 5758 5755 5753 5751 5750 5749 5749 5747 5746 5747 5746 5746 5745 5745 5746 5746 5745 5741 5736 5734 5732 5730 5729 5728 5727 5726 5725
5790 5787 5784 5780 5775 5772 5770 5767 5765 5764 5762 5763 5762 5761 5760 5759 5758 5757 5755 5753 5751 5751 5750 5749 5748 5748 5747 5747 5747 5746 5746 5745 5744 5740 5735 5733 5731 5730 5728 5727 5726 5725 5724
5789 5785 5782 5778 5772 5769 5767 5766 5766 5765 5764 5764 5762 5761 5761 5760 5759 5757 5756 5754 5754 5752 5751 5750 5749 5749 5748 5747 5747 5746 5744 5744 5743 5739 5735 5733 5731 5729 5728 5727 5726 5724 5723
5788 5783 5779 5774 5770 5766 5764 5763 5764 5765 5764 5764 5762 5761 5761 5760 5759 5757 5756 5755 5754 5753 5752 5751 5750 5749 5748 5747 5746 5746 5745 5744 5742 5739 5736 5733 5731 5729 5728 5727 5726 5724 5723
5787 5782 5777 5772 5767 5763 5762 5761 5763 5764 5764 5764 5762 5761 5760 5759 5758 5757 5756 5754 5754 5753 5753 5752 5750 5750 5748 5747 5746 5746 5745 5744 5743 5740 5737 5734 5732 5730 5728 5727 5726 5724 5723
5787 5780 5775 5772 5765 5761 5759 5759 5761 5762 5763 5763 5761 5760 5759 5758 5757 5756 5755 5755 5755 5754 5753 5752 5751 5749 5748 5747 5746 5746 5745 5744 5743 5741 5739 5737 5734 5732 5730 5728 5726 5725 5723
5787 5780 5773 5771 5765 5761 5759 5758 5759 5760 5761 5761 5760 5759 5757 5757 5756 5755 5755 5755 5754 5754 5754 5753 5750 5750 5747 5746 5746 5745 5745 5744 5743 5743 5741 5739 5736 5735 5732 5729 5727 5725 5724
5786 5780 5773 5768 5765 5761 5758 5755 5755 5756 5758 5759 5758 5757 5756 5756 5756 5755 5755 5755 5755 5754 5753 5752 5749 5749 5748 5746 5746 5746 5746 5746 5745 5744 5743 5742 5739 5737 5734 5732 5729 5726 5725
5784 5778 5773 5767 5764 5760 5755 5752 5750 5750 5753 5756 5757 5757 5756 5756 5755 5754 5755 5755 5755 5753 5752 5751 5749 5747 5746 5747 5742 5740 5743 5746 5745 5745 5744 5744 5742 5739 5736 5734 5731 5729 5727
5783 5778 5773 5767 5763 5759 5756 5753 5751 5750 5752 5754 5756 5756 5755 5755 5754 5754 5753 5754 5754 5752 5751 5750 5748 5745 5745 5746 5741 5734 5730 5734 5740 5747 5745 5744 5743 5741 5739 5737 5735 5733 5730
5783 5778 5774 5768 5763 5759 5756 5752 5750 5748 5749 5750 5752 5753 5754 5754 5754 5754 5753 5753 5753 5751 5749 5748 5747 5744 5741 5744 5745 5737 5729 5725 5731 5740 5744 5745 5744 5742 5741 5740 5738 5736 5733
5785 5781 5775 5769 5764 5759 5756 5752 5748 5746 5744 5748 5750 5752 5752 5752 5753 5753 5752 5751 5751 5751 5748 5748 5748 5746 5743 5739 5742 5744 5742 5738 5730 5729 5737 5743 5744 5742 5742 5741 5739 5737 5735
5788 5782 5777 5770 5764 5760 5757 5754 5750 5749 5748 5749 5751 5750 5750 5751 5751 5752 5751 5750 5749 5749 5749 5748 5747 5746 5744 5741 5740 5741 5742 5741 5740 5731 5727 5733 5738 5741 5742 5741 5739 5736 5734
5789 5784 5778 5770 5764 5761 5757 5755 5752 5750 5749 5748 5748 5747 5748 5749 5750 5751 5750 5749 5748 5748 5748 5747 5746 5744 5743 5742 5742 5741 5740 5738 5737 5736 5731 5730 5730 5736 5740 5740 5738 5735 5732